Other Public Products
Issued by NWS Charleston, SC

Current Version | Previous Version | Graphics & Text | Print | Product List | Glossary On
Versions: 1 2 3 4 5 6 7 8 9 10 11 12 13 14 15 16 17 18 19 20 21 22 23 24 25 26 27 28 29 30 31 32 33 34 35 36 37 38 39 40 41 42 43 44 45 46 47 48 49 50
897
FPUS82 KCHS 191012
OPUCHS

TEST...KCHS/KSAV Gateway Observations...TEST
National Weather Service Charleston SC
500 AM EST THU JAN 19 2017

NOTE: "fair" indicates few or no clouds below 12,000 feet with no
significant weather and/or obstructions to visibility.

SCZ050-WAZ558-NCZ071-TXZ119-213-PAZ071-DCZ001-FLZ074-172-MI076-
NYZ176-178-MAZ016-IL014-TNZ027-NJZ106-GAZ044-MD014-191100-
...Gateway Observations for Charleston International...

CITY           SKY/WX    TMP DP  RH WIND       PRES   REMARKS
Chas Airport   PTCLDY    53  52  96 NE5       30.01S
Seattle        MOCLDY    45  41  86 S10       29.44R
Charlotte      CLOUDY    44  36  73 E8        30.06F
Dallas DFW     FOG       48  48 100 SW8       29.89F VSB 1/8
Dallas Love    CLOUDY    50  48  93 SW7       29.91F
Philladelphia  CLOUDY    45  37  73 NW5       30.06S
Wash National  CLOUDY    43  36  76 NW9       30.08S
Baltimore      CLOUDY    44  36  73 NW9       30.07S
Miami          PTCLDY    67  61  81 NW3       30.07R
Detroit        CLOUDY    33  31  92 SW15      30.08S WCI  23
Newark         MOCLDY    41  37  86 SW5       30.02F
Laguardia      CLOUDY    42  35  76 CALM      30.02S
J F K          MOCLDY    38  35  89 CALM      30.03F
Boston Logan   CLOUDY    32  30  92 NW7       30.01S WCI  26
Ft. Lauderdale PTCLDY    64  61  90 CALM      30.06R
Chicago O`Hare FOG       33  33 100 S7        30.02F VSB 3/4 WCI  27
Chicago Midway CLOUDY    32  31  96 SE3       30.03F FOG
Houston Bush   CLOUDY    56  54  93 NW9       29.91R
Houston Hobby  CLOUDY    57  56  96 W6        29.90R
Nashville      CLOUDY    48  43  82 CALM      30.03S
Atlanta        MOCLDY    55  51  86 CALM      30.03F

$$

GAZ044-118-TXZ119-213-NCZ071-DCZ001-MDZ014-506-PAZ021-071-NJZ106-
NYZ176-178-MAZ106-OHZ011-021-055-MIZ076-KYZ091-ILZ014-INZ047-
MNZ060-191100-
...Gateway Observations for Savannah International...

CITY           SKY/WX    TMP DP  RH WIND       PRES   REMARKS
Savannah Arpt  CLEAR     56  54  93 W3        30.03F
Atlanta        MOCLDY    55  51  86 CALM      30.03F
Charlotte      CLOUDY    44  36  73 E8        30.06F
Dallas DFW     FOG       48  48 100 SW8       29.89F VSB 1/8
Houston Bush   CLOUDY    56  54  93 NW9       29.91R
Wash National  CLOUDY    43  36  76 NW9       30.08S
Wash Dulles    CLOUDY    45  34  65 N8        30.07S
Baltimore      CLOUDY    44  36  73 NW9       30.07S
Philadelphia   CLOUDY    45  37  73 NW5       30.06S
Newark         MOCLDY    41  37  86 SW5       30.02F
Laguardia      CLOUDY    42  35  76 CALM      30.02S
J F K          MOCLDY    38  35  89 CALM      30.03F
Boston         CLOUDY    32  30  92 NW7       30.01S WCI  26
Pittsburg      CLOUDY    38  36  92 SW6       30.07S WCI  33
Akron          CLOUDY    37  33  85 SW10      30.07F FOG     WCI  30
Cleveland      CLOUDY    38  33  82 SW10      30.09F WCI  31
Cincinnati     CLOUDY    38  36  92 CALM      30.09S
Columbus         N/A     38  37  99 SW5       30.11S WCI  34
Detroit        CLOUDY    33  31  92 SW15      30.08S WCI  23
Chicago O`Hare FOG       33  33 100 S7        30.02F VSB 3/4 WCI  27
Minneapolis    CLEAR     31  29  92 SE7       29.82S WCI  24
Indianapolis   CLOUDY    36  33  89 E5        30.07F WCI  32

$$




USA.gov is the U.S. government's official web portal to all federal, state and local government web resources and services.